TimeMST,TemperatureF,Dew PointF,Humidity,Sea Level PressureIn,VisibilityMPH,Wind Direction,Wind SpeedMPH,Gust SpeedMPH,PrecipitationIn,Events,Conditions,WindDirDegrees,DateUTC
12:55 AM,37.0,30.0,76,30.08,10.0,SE,15.0,-,N/A,,Overcast,140,2013-02-13 07:55:00
1:55 AM,37.0,30.0,76,30.04,10.0,SSE,12.7,-,N/A,,Overcast,160,2013-02-13 08:55:00
2:55 AM,37.0,30.0,76,30.02,10.0,SSE,10.4,-,N/A,,Overcast,160,2013-02-13 09:55:00
3:55 AM,37.0,30.9,79,30.02,10.0,SSE,10.4,-,N/A,,Overcast,160,2013-02-13 10:55:00
4:55 AM,39.0,30.9,73,30.00,10.0,South,8.1,-,0.00,,Overcast,180,2013-02-13 11:55:00
5:55 AM,34.0,30.0,85,30.03,10.0,Calm,Calm,-,N/A,,Overcast,0,2013-02-13 12:55:00
6:55 AM,37.0,30.9,79,30.03,10.0,WNW,18.4,26.5,0.00,Rain,Light Rain,290,2013-02-13 13:55:00
7:55 AM,34.0,28.0,79,30.06,10.0,Calm,Calm,-,0.00,,Scattered Clouds,0,2013-02-13 14:55:00
8:55 AM,39.0,28.9,67,30.08,10.0,Calm,Calm,-,N/A,,Scattered Clouds,0,2013-02-13 15:55:00
9:55 AM,41.0,28.9,62,30.09,10.0,SE,5.8,-,N/A,,Scattered Clouds,140,2013-02-13 16:55:00
10:55 AM,42.1,30.9,65,30.10,10.0,SE,11.5,-,N/A,,Overcast,140,2013-02-13 17:55:00
11:55 AM,44.1,25.0,47,30.10,10.0,SSW,5.8,-,N/A,,Mostly Cloudy,210,2013-02-13 18:55:00
12:55 PM,46.0,24.1,42,30.09,10.0,WSW,10.4,-,N/A,,Mostly Cloudy,240,2013-02-13 19:55:00
1:55 PM,45.0,24.1,44,30.08,10.0,SW,10.4,-,N/A,,Mostly Cloudy,230,2013-02-13 20:55:00
2:55 PM,46.0,21.0,37,30.07,10.0,WSW,11.5,19.6,N/A,,Mostly Cloudy,250,2013-02-13 21:55:00
3:55 PM,45.0,19.0,36,30.09,10.0,West,8.1,17.3,N/A,,Overcast,260,2013-02-13 22:55:00
4:55 PM,43.0,21.9,43,30.11,10.0,West,11.5,17.3,N/A,,Overcast,260,2013-02-13 23:55:00
5:55 PM,39.9,21.9,49,30.14,10.0,West,3.5,-,N/A,,Overcast,270,2013-02-14 00:55:00
6:55 PM,41.0,23.0,49,30.16,10.0,West,10.4,-,N/A,,Mostly Cloudy,280,2013-02-14 01:55:00
7:55 PM,36.0,24.1,62,30.19,10.0,WNW,5.8,-,N/A,,Scattered Clouds,290,2013-02-14 02:55:00
8:55 PM,37.0,24.1,59,30.19,10.0,West,6.9,-,N/A,,Clear,280,2013-02-14 03:55:00
9:55 PM,35.1,23.0,61,30.22,10.0,WSW,3.5,-,N/A,,Clear,250,2013-02-14 04:55:00
10:55 PM,32.0,23.0,69,30.24,10.0,Calm,Calm,-,N/A,,Clear,0,2013-02-14 05:55:00
11:55 PM,27.0,23.0,85,30.25,10.0,Calm,Calm,-,N/A,,Clear,0,2013-02-14 06:55:00